Home   Weather   Wels   Past weeks

Flag for Austria Past Weather in Wels, Upper Austria, Austria — Yesterday and Last 2 Weeks

Now
23 °F

Ice fog.


Feels Like: N/A
Forecast: 24 / 35 °F
Wind: N/A

Location: Linz / Hoersching-Flughafen

Current Time: Dec 3, 2016 at 8:01:15 am

Latest Report: Dec 3, 2016 at 7:00 am


Visibility: 0 mi

Pressure: 30.31 "Hg

Humidity: 98%

Dew Point: 23 °F

Location of WelsLocation

Past Weather in Wels — Graph

°F

Wels Temperature Yesterday

Maximum temperature yesterday: 42 °F (at 10:00 am)
Minimum temperature yesterday: 30 °F (at 11:00 pm)
Average temperature yesterday: 38 °F

High & Low Weather Summary for the Past Weeks

 TemperatureHumidityPressure
High58 °F (Nov 21, 3:00 pm)100% (Nov 18, 6:00 am)30.62 "Hg (Nov 18, 6:00 am)
Low20 °F (Nov 30, 8:00 am)45% (Nov 28, 1:00 pm)29.74 "Hg (Nov 21, 3:00 pm)
Average38 °F86%30.13 "Hg
* Reported Nov 18 6:00 am — Dec 3 6:00 am, Wels, Weather by CustomWeather, © 2016

Note: Actual official high and low records may vary slightly from our data, if they occured in-between our weather recording intervals... More about our weather records

Advertising

Wels Weather History for the Previous 24 Hours

Scroll right to see more
 ConditionsComfort  
Time TempWeatherWind HumidityBarometerVisibility
6:00 am
Sat, Dec 3
24 °FIce fog.N/A98%30.30 "Hg0 mi
5:00 am24 °FLow clouds.N/A98%30.29 "Hg0 mi
4:00 am25 °FLow clouds.N/A98%30.29 "Hg0 mi
3:00 am25 °FIcy mix. Low clouds.N/A98%30.28 "Hg0 mi
2:00 am27 °FIcy mix. Passing clouds.N/A99%30.27 "Hg0 mi
1:00 am26 °FPassing clouds.N/A100%30.27 "Hg0 mi
12:00 am27 °FIcy mix. Passing clouds.N/A97%30.26 "Hg0 mi
11:00 pm
Fri, Dec 2
30 °FPassing clouds.N/A98%30.25 "Hg4 mi
10:00 pm31 °FPassing clouds.N/A96%30.24 "Hg4 mi
9:00 pm34 °FPassing clouds.3 mph90%30.23 "Hg11 mi
8:00 pm34 °FPassing clouds.N/A90%30.22 "Hg11 mi
7:00 pm35 °FOvercast.5 mph89%30.20 "Hg25 mi
6:00 pm38 °FRain showers. Overcast.5 mph86%30.18 "Hg25 mi
5:00 pm38 °FRain showers. Overcast.N/A87%30.17 "Hg18 mi
4:00 pm40 °FOvercast.5 mph86%30.15 "Hg22 mi
3:00 pm40 °FOvercast.6 mph87%30.13 "Hg11 mi
2:00 pm40 °FOvercast.7 mph89%30.11 "Hg8 mi
1:00 pm40 °FLight rain. Overcast.7 mph88%30.10 "Hg6 mi
12:00 pm40 °FLots of rain. Overcast.12 mph86%30.08 "Hg2 mi
11:00 am41 °FRain showers. Overcast.12 mph81%30.07 "Hg6 mi
10:00 am42 °FOvercast.14 mph74%30.06 "Hg25 mi
9:00 am41 °FOvercast.15 mph74%30.06 "Hg19 mi
8:00 am40 °FOvercast.12 mph75%30.06 "Hg19 mi
Weather by CustomWeather, © 2016

See weather overviewHow to use our weather pages